Regional Weather Roundup
Issued by NWS

Home | Current Version | Previous Version | Text Only | Print | Product List | Glossary Off
Versions: 1 2 3 4 5 6 7 8 9 10 11 12 13 14 15 16 17 18 19 20 21 22 23 24 25 26 27

000
ASUS45 KSLC 290210
RWRUT

UTAH REGIONAL WEATHER ROUNDUP
NATIONAL WEATHER SERVICE SALT LAKE CITY UT
800 PM MDT TUE MAR 28 2017

UTZ001>011-023>025-290300-

NORTHERN UTAH

CITY           SKY/WX    TMP DP  RH WIND       PRES   REMARKS
BRIGHAM CITY     N/A     48  28  45 N14       30.19R
HILL AFB       CLEAR     48  27  43 NW12      30.17R
LOGAN          CLEAR     45  32  60 N9        30.19R
OGDEN          CLEAR     46  29  51 NW10      30.17R
SALT LAKE CITY PTCLDY    50  32  50 NW13      30.17R
TOOELE VALLEY  CLEAR     45  32  61 N5        30.19S
WENDOVER       CLEAR     52  22  30 N9        30.21R
HEBER CITY     PTCLDY    43  25  49 N9        30.13R
WEST JORDAN    CLEAR     49  38  66 NW9       30.18R

$$

UTZ011>015-024>027-290300-

CENTRAL/NORTHEAST UTAH

CITY           SKY/WX    TMP DP  RH WIND       PRES   REMARKS
PROVO AIRPORT  CLEAR     47  32  56 NW22G30   30.16R
MOAB/CANYONLAN PTCLDY    53  31  42 NE17      29.98R
DELTA          CLEAR     45  32  61 NW13      30.18R
PRICE          PTCLDY    45  26  47 NW15G21   30.07R
RICHFIELD      CLOUDY    46  28  49 NW9G15    30.19R
ROOSEVELT      CLEAR     46  34  61 SW8       30.09R
VERNAL         CLEAR     45  30  55 NE9       30.08R

$$

UTZ013>016-019>022-027-290300-

SOUTHERN UTAH

CITY           SKY/WX    TMP DP  RH WIND       PRES   REMARKS
BRYCE CANYON   CLEAR     37  19  48 N15G29    30.11R WCI  28
CEDAR CITY     PTCLDY    41  29  62 N13       30.15R
MILFORD        PTCLDY    45  27  49 N17       30.17R
ST GEORGE      PTCLDY    60  23  24 NE21      30.04R
HANKSVILLE     CLOUDY    55  23  28 N26       30.02R
KANAB          CLEAR     50  23  34 N22G31    30.09R
BLANDING       MOCLDY    46  31  56 NW17G25   30.00R

$$

REGIONAL REPORTS     COLORADO/ARIZONA

CITY           SKY/WX    TMP DP  RH WIND       PRES   REMARKS
CRAIG, CO      CLOUDY    41  31  67 N16       30.04R
GRAND JUNCTION CLOUDY    49  39  68 NW14      29.97R
RIFLE, CO      CLOUDY    47  35  63 NW16      29.98R
MONTROSE, CO   CLOUDY    45  36  70 NW23G30   29.94R
CORTEZ, CO     CLOUDY    45  34  65 N12G20    29.89R
COLORADO CITY    N/A     52  27  37 NW12      30.10R
PAGE, AZ       MOCLDY    59  24  26 NW10G20   29.95R
GRAND CANYON   CLEAR     46  22  38 VRB6      30.03R
KINGMAN, AZ    CLEAR     59   0   9 N18G28    30.01R
FLAGSTAFF, AZ  CLOUDY    44  28  53 W5        30.01R

$$

REGIONAL REPORTS    NEVADA/IDAHO/WYOMING

CITY           SKY/WX    TMP DP  RH WIND       PRES   REMARKS
LAS VEGAS, NV  PTCLDY    70  14  11 NE12      30.01R
ELY, NY        CLEAR     43  24  47 N10       30.20R
ELKO, NV       CLEAR     47  25  42 NW7       30.25R
POCATELLO, ID  CLOUDY    45  29  53 SW14      30.20R
BURLEY, ID     MOCLDY    45  25  45 W10       30.22R
FORT BRIDGER,    N/A     37  26  63 NW14      30.18R WCI  28
EVANSTON, WY   CLEAR     36  23  59 N10       30.18R WCI  28
ROCK SPRINGS,  CLOUDY    37  33  85 NE6       30.14R WCI  32
KEMMERER, WY     N/A     34  25  69 W16       30.16R WCI  23

$$




USA.gov is the U.S. government's official web portal to all federal, state and local government web resources and services.